EW8897 Weather Reports


time (UTC)temp
C
wind
direction
speed
KPH
gust
KPH
rain 1hr
cm
rain 24hr
cm
rain mn
cm
humidity
%
barometer
mb
20260504100511 4 0 0.0 0.0 0.00 0.00 0.00 69 1014.3
20260504081529 5 0 0.0 0.0 0.00 0.00 0.00 70 1014.8
20260504081013 5 0 0.0 0.0 0.00 0.00 0.00 69 1014.9
20260504080512 5 0 0.0 0.0 0.00 0.00 0.00 69 1014.9
20260504050511 6 0 0.0 0.0 0.00 0.00 0.00 68 1014.8
20260504045510 6 0 0.0 0.0 0.00 0.00 0.00 67 1014.9
20260504045010 6 0 0.0 0.0 0.00 0.00 0.00 67 1014.9
20260504044536 6 0 0.0 0.0 0.00 0.00 0.00 67 1014.9
20260504044011 6 0 0.0 0.0 0.00 0.00 0.00 67 1014.9
20260504043512 6 0 0.0 0.0 0.00 0.00 0.00 66 1014.9
20260504043040 6 0 0.0 0.0 0.00 0.00 0.00 67 1014.8
20260504042514 6 0 0.0 0.0 0.00 0.00 0.00 68 1014.9
20260504042014 6 0 0.0 0.0 0.00 0.00 0.00 69 1014.8
20260504041527 6 0 0.0 0.0 0.00 0.00 0.00 69 1014.7
20260504041010 6 0 0.0 0.0 0.00 0.00 0.00 68 1014.8
20260504040511 6 0 0.0 0.0 0.00 0.00 0.00 68 1014.8
20260504040027 6 0 0.0 0.0 0.00 0.00 0.00 67 1014.5
20260504035511 6 0 0.0 0.0 0.00 0.00 0.00 67 1014.5
20260504035011 6 0 0.0 0.0 0.00 0.00 0.00 66 1014.5
20260504034528 6 0 0.0 0.0 0.00 0.00 0.00 67 1014.6
20260504034011 6 0 0.0 0.0 0.00 0.00 0.00 67 1014.6
20260504033511 6 0 0.0 0.0 0.00 0.00 0.00 66 1014.5
20260504033030 6 0 0.0 0.0 0.00 0.00 0.00 65 1014.6
20260504032513 6 0 0.0 0.0 0.00 0.00 0.00 66 1014.5
20260504032012 6 0 0.0 0.0 0.00 0.00 0.00 66 1014.5
20260504031530 6 0 0.0 0.0 0.00 0.00 0.00 67 1014.4
20260504031012 6 0 0.0 0.0 0.00 0.00 0.00 68 1014.5
20260504030513 6 0 0.0 0.0 0.00 0.00 0.00 68 1014.4
20260504030031 6 0 0.0 0.0 0.00 0.00 0.00 67 1014.3
20260504025515 6 0 0.0 0.0 0.00 0.00 0.00 65 1014.4
20260504025010 6 0 0.0 0.0 0.00 0.00 0.00 65 1014.4
20260504024528 6 0 0.0 0.0 0.00 0.00 0.00 65 1014.5
20260504024013 6 0 0.0 0.0 0.00 0.00 0.00 66 1014.5
20260504023509 6 0 0.0 0.0 0.00 0.00 0.00 65 1014.3
20260504023029 6 0 0.0 0.0 0.00 0.00 0.00 67 1014.3
20260504022511 6 0 0.0 0.0 0.00 0.00 0.00 67 1014.5
20260504022012 6 0 0.0 0.0 0.00 0.00 0.00 69 1014.4
20260504021534 6 0 0.0 0.0 0.00 0.00 0.00 70 1014.3
20260504021012 6 0 0.0 0.0 0.00 0.00 0.00 69 1014.4
20260504020513 6 0 0.0 0.0 0.00 0.00 0.00 69 1014.4
20260504020035 6 0 0.0 0.0 0.00 0.00 0.00 68 1014.4
20260504015513 6 0 0.0 0.0 0.00 0.00 0.00 67 1014.4
20260504015010 6 0 0.0 0.0 0.00 0.00 0.00 68 1014.3
20260504014535 7 0 0.0 0.0 0.00 0.00 0.00 67 1014.3
20260504014012 7 0 0.0 0.0 0.00 0.00 0.00 68 1014.4
20260504013510 7 0 0.0 0.0 0.00 0.00 0.00 67 1014.4
20260504013030 7 0 0.0 0.0 0.00 0.00 0.00 67 1014.3
20260504012512 7 0 0.0 0.0 0.00 0.00 0.00 66 1014.2
20260504012010 7 0 0.0 0.0 0.00 0.00 0.00 66 1014.2
20260504011529 7 0 0.0 0.0 0.00 0.00 0.00 65 1014.1
20260504011012 7 0 0.0 0.0 0.00 0.00 0.00 64 1014.1
20260504010516 8 0 0.0 0.0 0.00 0.00 0.00 64 1014.1
20260504010028 8 0 0.0 0.0 0.00 0.00 0.00 63 1014.0
20260504005512 8 0 0.0 0.0 0.00 0.00 0.00 61 1014.0
20260504005009 8 0 0.0 0.0 0.00 0.00 0.00 61 1014.1
20260504004529 9 0 0.0 0.0 0.00 0.00 0.00 59 1014.1
20260504004012 9 0 0.0 0.0 0.00 0.00 0.00 58 1014.0
20260504003513 9 0 0.0 0.0 0.00 0.00 0.00 56 1013.9
20260504003030 10 0 0.0 0.0 0.00 0.00 0.00 55 1013.9
20260504002511 10 0 0.0 0.0 0.00 0.00 0.00 54 1013.8
20260504002011 10 0 0.0 0.0 0.00 0.00 0.00 50 1013.7
20260504001529 10 0 0.0 0.0 0.00 0.00 0.00 50 1013.6
20260504001011 11 0 0.0 0.0 0.00 0.00 0.00 48 1013.6
20260504000512 11 0 0.0 0.0 0.00 0.00 0.00 48 1013.5
20260504000028 11 0 0.0 0.0 0.00 0.00 0.00 48 1013.5
20260503235514 12 0 0.0 0.0 0.00 0.00 0.00 45 1013.6
20260503235012 12 0 0.0 0.0 0.00 0.00 0.00 47 1013.5
20260503234530 12 0 0.0 0.0 0.00 0.00 0.00 43 1013.4
20260503234009 12 0 0.0 0.0 0.00 0.00 0.00 43 1013.2
20260503233508 13 0 0.0 0.0 0.00 0.00 0.00 44 1013.2
20260503233030 13 0 0.0 0.0 0.00 0.00 0.00 39 1013.2
20260503232511 13 0 0.0 0.0 0.00 0.00 0.00 43 1013.3
20260503232010 13 0 0.0 0.0 0.00 0.00 0.00 40 1013.2
20260503231530 13 0 0.0 0.0 0.00 0.00 0.00 42 1013.2
20260503231011 14 0 0.0 0.0 0.00 0.00 0.00 37 1013.2
20260503230514 15 0 0.0 0.0 0.00 0.00 0.00 38 1013.3
20260503230030 15 0 0.0 0.0 0.00 0.00 0.00 35 1013.2
20260503225511 15 0 0.0 0.0 0.00 0.00 0.00 35 1013.2
20260503225011 15 0 0.0 0.0 0.00 0.00 0.00 35 1013.2
20260503224529 15 0 0.0 0.0 0.00 0.00 0.00 38 1013.2
20260503224009 15 0 0.0 0.0 0.00 0.00 0.00 35 1013.1
20260503223513 15 0 0.0 0.0 0.00 0.00 0.00 33 1013.3
20260503223032 15 0 0.0 0.0 0.00 0.00 0.00 33 1013.2
20260503222511 15 0 0.0 0.0 0.00 0.00 0.00 34 1013.2
20260503222012 15 0 0.0 0.0 0.00 0.00 0.00 37 1013.3
20260503221528 15 0 0.0 0.0 0.00 0.00 0.00 36 1013.2
20260503221012 15 0 0.0 0.0 0.00 0.00 0.00 33 1013.2
20260503220514 15 0 0.0 0.0 0.00 0.00 0.00 37 1013.3
20260503220030 15 0 0.0 0.0 0.00 0.00 0.00 36 1013.3
20260503215511 16 0 0.0 0.0 0.00 0.00 0.00 33 1013.4
20260503215011 16 0 0.0 0.0 0.00 0.00 0.00 33 1013.4
20260503214538 16 0 0.0 0.0 0.00 0.00 0.00 34 1013.3
20260503214010 15 0 0.0 0.0 0.00 0.00 0.00 34 1013.3
20260503213511 16 0 0.0 0.0 0.00 0.00 0.00 32 1013.3
20260503213031 16 0 0.0 0.0 0.00 0.00 0.00 31 1013.2
20260503212512 16 0 0.0 0.0 0.00 0.00 0.00 32 1013.2
20260503212014 16 0 0.0 0.0 0.00 0.00 0.00 32 1013.2
20260503211538 16 0 0.0 0.0 0.00 0.00 0.00 33 1013.0
20260503211012 16 0 0.0 0.0 0.00 0.00 0.00 34 1013.2
20260503210511 16 0 0.0 0.0 0.00 0.00 0.00 33 1013.2
20260503210029 16 0 0.0 0.0 0.00 0.00 0.00 32 1013.3
20260503205511 16 0 0.0 0.0 0.00 0.00 0.00 32 1013.1
20260503205011 16 0 0.0 0.0 0.00 0.00 0.00 36 1013.2
20260503204531 16 0 0.0 0.0 0.00 0.00 0.00 37 1013.3
20260503204014 15 0 0.0 0.0 0.00 0.00 0.00 35 1013.2
20260503203512 15 0 0.0 0.0 0.00 0.00 0.00 33 1013.2
20260503203030 15 0 0.0 0.0 0.00 0.00 0.00 36 1013.3
20260503202513 15 0 0.0 0.0 0.00 0.00 0.00 34 1013.2
20260503202015 16 0 0.0 0.0 0.00 0.00 0.00 33 1013.3
20260503201528 16 0 0.0 0.0 0.00 0.00 0.00 32 1013.2
20260503201014 16 0 0.0 0.0 0.00 0.00 0.00 34 1013.2
20260503200513 15 0 0.0 0.0 0.00 0.00 0.00 35 1013.3
20260503200046 16 0 0.0 0.0 0.00 0.00 0.00 34 1013.4
20260503195511 16 0 0.0 0.0 0.00 0.00 0.00 31 1013.5
20260503195012 15 0 0.0 0.0 0.00 0.00 0.00 35 1013.6
20260503194530 15 0 0.0 0.0 0.00 0.00 0.00 36 1013.6
20260503194012 15 0 0.0 0.0 0.00 0.00 0.00 35 1013.7
20260503193512 15 0 0.0 0.0 0.00 0.00 0.00 33 1013.7
20260503193033 15 0 0.0 0.0 0.00 0.00 0.00 36 1013.8
20260503192509 15 0 0.0 0.0 0.00 0.00 0.00 37 1013.7
20260503192012 15 0 0.0 0.0 0.00 0.00 0.00 34 1013.8
20260503191529 15 0 0.0 0.0 0.00 0.00 0.00 35 1013.9
20260503191010 15 0 0.0 0.0 0.00 0.00 0.00 34 1013.8
20260503190509 15 0 0.0 0.0 0.00 0.00 0.00 36 1014.0
20260503190030 15 0 0.0 0.0 0.00 0.00 0.00 42 1014.2
20260503185512 15 0 0.0 0.0 0.00 0.00 0.00 35 1014.1
20260503185015 15 0 0.0 0.0 0.00 0.00 0.00 34 1014.1
20260503184540 15 0 0.0 0.0 0.00 0.00 0.00 33 1014.1
20260503184012 14 0 0.0 0.0 0.00 0.00 0.00 37 1014.2
20260503183512 13 0 0.0 0.0 0.00 0.00 0.00 35 1014.2
20260503183031 13 0 0.0 0.0 0.00 0.00 0.00 35 1014.4
20260503182511 13 0 0.0 0.0 0.00 0.00 0.00 37 1014.5
20260503182015 13 0 0.0 0.0 0.00 0.00 0.00 39 1014.4
20260503181531 13 0 0.0 0.0 0.00 0.00 0.00 35 1014.5
20260503181013 13 0 0.0 0.0 0.00 0.00 0.00 37 1014.4
20260503180510 13 0 0.0 0.0 0.00 0.00 0.00 36 1014.5
20260503180044 13 0 0.0 0.0 0.00 0.00 0.00 39 1014.6
20260503175511 13 0 0.0 0.0 0.00 0.00 0.00 40 1014.6
20260503175012 13 0 0.0 0.0 0.00 0.00 0.00 36 1014.6
20260503174542 13 0 0.0 0.0 0.00 0.00 0.00 37 1014.6
20260503174010 13 0 0.0 0.0 0.00 0.00 0.00 36 1014.5
20260503173512 13 0 0.0 0.0 0.00 0.00 0.00 38 1014.7
20260503173039 12 0 0.0 0.0 0.00 0.00 0.00 44 1014.6
20260503172511 13 0 0.0 0.0 0.00 0.00 0.00 38 1014.7
20260503172012 13 0 0.0 0.0 0.00 0.00 0.00 43 1014.6
20260503171530 12 0 0.0 0.0 0.00 0.00 0.00 42 1014.8
20260503171013 12 0 0.0 0.0 0.00 0.00 0.00 42 1014.9
20260503170511 12 0 0.0 0.0 0.00 0.00 0.00 37 1014.9
20260503151010 11 0 0.0 0.0 0.00 0.00 0.00 40 1015.6
20260503150514 10 0 0.0 0.0 0.00 0.00 0.00 39 1015.8
20260503131011 8 0 0.0 0.0 0.00 0.00 0.00 52 1016.2
20260503130511 7 0 0.0 0.0 0.00 0.00 0.00 52 1016.3
20260503110511 3 0 0.0 0.0 0.00 0.03 0.00 67 1015.2